Regional Weather Roundup
Issued by NWS

Home | Current Version | Previous Version | Graphics & Text | Print | Product List | Glossary Off
Versions: 1 2 3 4 5 6 7 8 9 10 11 12 13 14 15 16 17 18 19 20 21 22 23 24 25 26 27 28 29 30 31 32 33 34 35 36 37 38 39 40 41 42 43 44 45 46 47 48 49 50

000
ASUS43 KMKX 031021
RWRWI

WISCONSIN REGIONAL WEATHER ROUNDUP
NATIONAL WEATHER SERVICE MILWAUKEE/SULLIVAN WI
500 AM CDT THU SEP 03 2015

NOTE: "FAIR" INDICATES FEW OR NO CLOUDS BELOW 12,000 FEET WITH NO
SIGNIFICANT WEATHER AND/OR OBSTRUCTIONS TO VISIBILITY.

WIZ001-002-006>008-014>016-023>028-031100-
NORTHWEST WISCONSIN

CITY           SKY/WX    TMP DP  RH WIND       PRES   REMARKS
SUPERIOR ARPT  FOG       59  59 100 E3        29.97S VSB 1/2
ASHLAND        FOG       62  62 100 NE5       29.97S VSB 1/2
HAYWARD        FOG       62  61  96 NE5       29.96S VSB 1/4
SIREN          CLOUDY    64  63  97 E3        29.94R FOG
CUMBERLAND     CLEAR     63  61  94 CALM      29.94S FOG
RICE LAKE      CLEAR     64  63  96 CALM      29.95S
CHETEK         PTCLDY   N/A N/A N/A E6        29.94S
LADYSMITH      FOG       64  63  97 NE3       29.97S VSB 1/4
EAU CLAIRE     MOCLDY    68  66  93 NE3       29.91S
MENOMONIE      CLOUDY    68  67  98 CALM      29.92S FOG
NEW RICHMOND   CLOUDY    66  66 100 CALM      29.92S FOG
OSCEOLA        MOCLDY    66  66 100 E5        29.94S
$$

WIZ003>005-009-010-017-018-031100-
NORTH CENTRAL WISCONSIN

CITY           SKY/WX    TMP DP  RH WIND       PRES   REMARKS
MANITOWISH WTR FOG       62  62 100 CALM      29.98S VSB 3/4
ARBOR VITAE    MOCLDY    64  63  94 CALM      29.98S
WOODRUFF       MOCLDY    64  63  94 CALM      29.98S
RHINELANDER    CLOUDY    64  62  93 N5        29.97S
EAGLE RIVER    CLOUDY    63  63 100 NE5       29.97R FOG
LAND O LAKES   FOG       61  61 100 CALM      29.99S VSB 1/2
PHILLIPS       CLOUDY    63  63 100 E6        29.96S FOG
TOMAHAWK       CLOUDY    64  62  95 CALM      29.97R
MEDFORD        FOG       64  64 100 N3        29.95R VSB 1/4
MERRILL        CLOUDY    65  65 100 CALM      29.96R
$$

WIZ029-030-035-036-043>047-031100-
CENTRAL WISCONSIN

CITY           SKY/WX    TMP DP  RH WIND       PRES   REMARKS
WAUSAU         CLOUDY    67  65  93 NE7       29.93R
MOSINEE        CLOUDY    64  64 100 N6        29.95R FOG
MARSHFIELD     CLEAR     67  63  87 CALM      29.93S FOG
STEVENS POINT  PTCLDY    65  65  99 N5        29.93S FOG
WAUPACA        CLOUDY    70  69  98 CALM      29.91R FOG
WAUTOMA        PTCLDY    69  69 100 CALM      29.92R FOG
WISC RAPIDS    FOG       69  66  90 CALM      29.93S VSB 1/4
CAMP DOUGLAS   FOG       64  64 100 CALM      29.91S VSB 1/4
$$

WIZ011>013-019>022-031-037>040-048>050-031100-
NORTHEAST WISCONSIN

CITY           SKY/WX    TMP DP  RH WIND       PRES   REMARKS
ANTIGO         CLOUDY    64  64  99 N9        29.95R
SHAWANO        NOT AVBL
OCONTO         CLOUDY    66  66 100 NW5       29.87F
STURGEON BAY   CLOUDY    66  63  88 CALM      29.90S
GREEN BAY      CLOUDY    70  68  93 NW7       29.89S
MANITOWOC      LGT RAIN  71  68  90 MISG      29.86F
APPLETON       CLOUDY    68  68 100 W5        29.89R
CLINTONVILLE   CLOUDY    68  64  88 N6        29.91S
OSHKOSH        CLOUDY    71  69  93 S3        29.90S FOG
$$

WIZ032>034-041-042-053>061-031100-
SOUTHWEST WISCONSIN

CITY           SKY/WX    TMP DP  RH WIND       PRES   REMARKS
LA CROSSE      MOCLDY    73  69  87 S3        29.90S
SPARTA         PTCLDY    63  62  96 CALM      29.92S FOG
VIROQUA          N/A     66  66 100 CALM      29.94S
BOSCOBEL       FOG       69  68  96 CALM      29.92S VSB 1/2
PRAIRIE DU CHI PTCLDY    71  67  89 CALM      29.92S
PLATTEVILLE    CLOUDY    71  69  95 S3        29.95S
$$

WIZ056-057-062-063-064-067-068-031100-
SOUTH CENTRAL WISCONSIN

CITY           SKY/WX    TMP DP  RH WIND       PRES   REMARKS
REEDSBURG      MOCLDY    72  69  88 SW7       29.91S
BARABOO/DELLS  CLEAR     72  66  83 SW7       29.92S
LONE ROCK      CLEAR     68  65  90 CALM      29.92S
MINERAL POINT  PTCLDY    72  70  94 SW6       29.94F
MADISON        CLEAR     73  68  84 CALM      29.91F
MIDDLETON      CLEAR     73  70  91 W6        29.93S
WATERTOWN      PTCLDY    69  69 100 CALM      29.92S
MONROE         CLEAR     70  68  94 SW9       29.94F
JANESVILLE     CLEAR     70  68  94 CALM      29.93S
$$

WIZ051-052-058>065-066-070>072-031100-
SOUTHEAST WISCONSIN

CITY           SKY/WX    TMP DP  RH WIND       PRES   REMARKS
MILWAUKEE      PTCLDY    73  68  84 SW10      29.92S
WAUKESHA       CLEAR     70  66  88 SW3       29.94S
MILWAUKEE/TIMM PTCLDY    72  64  78 SW5       29.92F
RACINE         PTCLDY    73  67  81 SW6       29.95R
BURLINGTON     CLEAR     67  66  94 SW3       29.94S
KENOSHA        CLEAR     72  68  87 SW6       29.95R
FOND DU LAC    CLOUDY    71  70  96 CALM      29.91F FOG
SHEBOYGAN      LGT RAIN  69  67  93 W7        29.90F
WEST BEND      MOCLDY    72  66  83 SW6       29.91S
JUNEAU         MOCLDY    69  67  94 SW5       29.92F FOG
$$

LSZ147-162-031100-
LAKE SUPERIOR

STATION/POSITION TIME  TEMP    WIND        PRES    WAVE
                       AIR SEA DIR/SP/G            HT/PER
                 (UTC) (F)     (DEG/KT/KT) (MB)    (FT/S)
W MID LAKE BUOY  0950   57 56   30/ 10/ 10 1014.6F   0
DEVILS ISLAND    1000   57      70/  4/  5 1015.0R
PORT WING        0900   59      50/  4/  5 1014.9S
SAXON HARBOR     0940   59        CALM     1014.2S
$$

LMZ867-665-643>646-031100-
LAKE MICHIGAN

STATION/POSITION TIME  TEMP    WIND        PRES    WAVE
                       AIR SEA DIR/SP/G            HT/PER
                 (UTC) (F)     (DEG/KT/KT) (MB)    (FT/S)
CHAMBERS ISLAND  0900   67      80/ 11/ 16 1011.9F
S GREEN BAY BUOY 1000   66 66  300/  6/  6 1013.0F
N MID LAKE BUOY  0950   67 66  110/ 21/ 25 1011.6F   3/ 4
NORTHPORT PIER   0900   66      90/ 13/ 16 1012.2F
SISTER BAY       0911   66     100/ 12/ 17   N/A
ALGOMA LAKESHORE 0914             CALM       N/A
KEWAUNEE LAKESHO 1000   58      40/  7/  8 1010.8F
SHEBOYGAN LAKESH 1000   71     240/  7/  8 1012.0F
PORT WASHINGTON  0900   59     180/  2/  3 1013.2S
ATWATER BUOY     1000   59     190/  6/  6 1014.3F
MILWAUKEE LAKESH 1010   75     230/  9/ 11   N/A
S MID LAKE BUOY  0950   74 71  210/ 10/ 10 1013.2R   0
KENOSHA   LAKESH 1000   76     230/  6/  9 1013.5R
$$

TC  - TEMPERATURE IN CELSIUS
VSB - VISIBILITY IN STATUTE MILES
WCI - WIND CHILL INDEX
HX  - HEAT INDEX



USA.gov is the U.S. government's official web portal to all federal, state and local government web resources and services.